This demonstration page uses our WeatherBlox Daily Observations layout. Learn more.

Left ArrowRight Arrow

39.01783, -85.05884

Hourly Observations for May 3, 2022

Temp ( °F °C ) Dew Point ( °F °C ) Humidity (%) Winds ( mph kmh ) Pressure ( in mb ) Visibility ( mi km ) Precip ( " mm )
12:52 am 00:52 Mostly Cloudy 63 17.2 48 8.9 58 58 E 8 13 29.96 1015 10 16 0.00 0.00
1:52 am 01:52 Mostly Cloudy 62 16.7 49 9.4 62 62 E 6 9 29.95 1014 10 16 0.00 0.00
2:52 am 02:52 Mostly Cloudy 62 16.7 49 9.4 62 62 E 9 15 29.91 1013 10 16 0.00 0.00
3:52 am 03:52 Cloudy 61 16.1 53 11.7 75 75 E 10 17 29.90 1013 10 16 0.00 0.00
4:52 am 04:52 Cloudy with Light Rain 61 16.1 51 10.6 70 70 ESE 5 7 29.89 1012 8 13 0.00 0.00
5:37 am 05:37 Cloudy with Nearby Thunderstorms 61 16.1 52 11.1 72 72 ESE 13 20 29.87 1012 10 16 0.02 0.51
5:52 am 05:52 Cloudy with Nearby Thunderstorms 61 16.1 52 11.1 72 72 SE 13 20 29.85 1011 10 16 0.03 0.76
6:30 am 06:30 Cloudy with Thunderstorms 60 15.6 53 11.7 78 78 VRB 6 9 29.90 1013 8 13 0.00 0.00
6:34 am 06:34 Cloudy with Thunderstorms 59 15 53 11.7 81 81 WSW 7 11 29.90 1013 3 5 0.00 0.00
6:37 am 06:37 Cloudy with Strong Thunderstorms 59 15 54 12.2 83 83 VRB 5 7 29.90 1013 2 3 0.03 0.76
6:43 am 06:43 Cloudy with Thunderstorms 58 14.4 54 12.2 87 87 S 7 11 29.90 1012 4 6 0.06 1.52
6:52 am 06:52 Cloudy with Nearby Thunderstorms 58 14.4 54 12.2 87 87 SSE 10 17 29.88 1012 7 11 0.08 2.03
7:04 am 07:04 Cloudy with Light Rain 58 14.4 56 13.3 93 93 SSE 12 19 29.89 1012 8 13 0.00 0.00
7:52 am 07:52 Cloudy with Light Rain 59 15 57 13.9 93 93 SSE 10 17 29.87 1012 5 8 0.04 1.02
8:42 am 08:42 Cloudy with Nearby Thunderstorms 61 16.1 60 15.6 97 97 S 10 17 29.88 1012 3 4 0.04 1.02
8:52 am 08:52 Cloudy with Nearby Thunderstorms 61 16.1 60 15.6 97 97 SSE 15 24 29.87 1012 2 3 0.09 2.29
8:55 am 08:55 Cloudy with Strong Thunderstorms 61 16.1 60 15.6 97 97 SSE 18 30 29.86 1011 2 3 0.00 0.00
9:04 am 09:04 Cloudy with Rain 61 16.1 61 16.1 100 100 SE 16 26 29.86 1011 3 5 0.11 2.79
9:25 am 09:25 Cloudy with Light Rain 60 15.6 60 15.6 100 100 Calm 29.86 1011 4 6 0.25 6.35
9:32 am 09:32 Cloudy with Strong Thunderstorms 60 15.6 60 15.6 100 100 VRB 6 9 29.89 1012 3 4 0.26 6.60
9:40 am 09:40 Cloudy with Light Rain 59 15 59 15 100 100 SE 7 11 29.86 1011 4 6 0.47 11.94
9:52 am 09:52 Cloudy with Light Rain 59 15 59 15 100 100 ESE 12 19 29.84 1011 4 6 0.49 12.45
9:54 am 09:54 Cloudy with Light Rain 59 15 59 15 100 100 ESE 10 17 29.85 1011 7 11 0.00 0.00
10:28 am 10:28 Mostly Cloudy 62 16.7 61 16.1 96 96 SE 13 20 29.83 1010 9 14 0.03 0.76
10:52 am 10:52 Mostly Cloudy 65 18.3 63 17.2 93 93 SE 16 26 29.79 1009 10 16 0.03 0.76
11:52 am 11:52 Cloudy 71 21.7 65 18.3 81 81 SSW 15 24 29.79 1009 10 16 0.00 0.00
12:52 pm 12:52 Cloudy 75 23.9 67 19.4 76 76 SW 13 20 29.79 1009 10 16 0.00 0.00
1:52 pm 13:52 Mostly Cloudy 75 23.9 65 18.3 71 71 SSW 14 22 29.78 1009 10 16 0.00 0.00
2:52 pm 14:52 Mostly Cloudy 79 26.1 65 18.3 62 62 SW 21 33 29.75 1007 10 16 0.00 0.00
3:04 pm 15:04 Mostly Cloudy with Nearby Thunderstorms 78 25.6 64 17.8 62 62 SW 21 33 29.74 1007 10 16 0.00 0.00
3:13 pm 15:13 Windy with Storms Likely 75 23.9 64 17.8 69 69 S 21 33 29.76 1008 10 16 0.00 0.00
3:15 pm 15:15 Cloudy with Strong Thunderstorms 74 23.3 64 17.8 71 71 SW 28 44 29.78 1008 2 3 0.00 0.00
3:18 pm 15:18 Cloudy with Strong Thunderstorms 69 20.6 65 18.3 87 87 SSW 21 33 29.79 1009 1 2 0.00 0.00
3:22 pm 15:22 Cloudy with Thunderstorms 67 19.4 63 17.2 87 87 SSW 17 28 29.79 1009 5 8 0.16 4.06
3:47 pm 15:47 Cloudy with Nearby Thunderstorms 66 19 66 19 100 100 S 12 19 29.77 1008 9 14 0.32 8.13
3:52 pm 15:52 Cloudy with Nearby Thunderstorms 68 20 66 18.9 93 93 SSW 10 17 29.78 1008 9 14 0.32 8.13
4:07 pm 16:07 Cloudy with Light Rain 69 20.6 67 19.4 93 93 SW 9 15 29.79 1009 10 16 0.00 0.00
4:52 pm 16:52 Cloudy 72 22.2 67 19.4 84 84 SW 10 17 29.77 1008 10 16 0.00 0.00
5:52 pm 17:52 Cloudy with Nearby Thunderstorms 73 22.8 68 20 84 84 SSW 8 13 29.77 1008 10 16 0.00 0.00
6:08 pm 18:08 Cloudy 74 23.3 68 20 82 82 SW 12 19 29.77 1008 10 16 0.00 0.00
6:52 pm 18:52 Mostly Cloudy 74 23.3 61 16.1 64 64 SW 12 19 29.77 1008 10 16 0.00 0.00
7:52 pm 19:52 Mostly Cloudy 73 22.8 59 15 62 62 SW 14 22 29.77 1008 10 16 0.00 0.00
8:52 pm 20:52 Cloudy with Light Rain 72 22.2 59 15 64 64 WSW 8 13 29.78 1009 10 16 0.00 0.00
8:57 pm 20:57 Cloudy with Light Rain 72 22.2 60 15.6 66 66 WNW 17 28 29.79 1009 10 16 0.00 0.00
9:52 pm 21:52 Cloudy 66 18.9 63 17.2 90 90 WNW 7 11 29.83 1010 10 16 0.00 0.00
10:19 pm 22:19 Cloudy 66 18.9 63 17.2 90 90 NW 16 26 29.85 1011 10 16 0.00 0.00
10:52 pm 22:52 Cloudy 64 17.8 59 15 84 84 NW 17 28 29.86 1011 10 16 0.00 0.00
11:52 pm 23:52 Cloudy 62 16.7 56 13.3 80 80 WNW 10 17 29.88 1012 10 16 0.00 0.00

Powered by AerisWeather